Tracking 30970 objects as of 3-Jul-2025
HD Live streaming from Space Station
objects crossing your sky now

COSMOS 1030 DEB

Track COSMOS 1030 DEB now!


NORAD ID: 39447
Int'l Code: 1978-083T
Perigee: 1,909.4 km
Apogee: 38,514.0 km
Inclination: 63.8 °
Period: 718.9 minutes
Semi major axis: 26582 km
RCS: Unknown
Launch date: September 6, 1978
Source: Commonwealth of Independent States (former USSR) (CIS)
Launch site: PLESETSK MISSILE AND SPACE COMPLEX (PKMTR)

Note: This is SATELLITE DEBRIS
Your satellite tracking list
Your tracking list is empty




NASA's NSSDC Master Catalog

Two Line Element Set (TLE):
1 39447U 78083T   25182.26237436  .00000861  00000-0  00000-0 0  9999
2 39447  63.8075 228.6835 6885044   3.8741 359.6365  2.00310912 75715
Source of the keplerian elements: AFSPC